K7GFH-13 Weather Reports


time (UTC)temp
F
wind
direction
speed
knots
gust
knots
rain 1hr
in
rain 24hr
in
rain mn
in
humidity
%
barometer
mb
20260506014951 61 311 1.7 1.7 0.00 0.00 0.00 74 1017.4
20260506013449 61 274 0.9 0.9 0.00 0.00 0.00 74 1017.3
20260506011944 61 217 0.0 0.0 0.00 0.00 0.00 75 1017.3
20260506010443 60 284 1.7 1.7 0.00 0.00 0.00 75 1017.4
20260506004944 61 309 1.7 1.7 0.00 0.00 0.00 75 1017.4
20260506003440 61 58 0.9 0.9 0.00 0.00 0.00 75 1017.4
20260506001940 61 311 1.7 2.6 0.00 0.00 0.00 75 1017.3
20260506000438 61 256 0.0 0.9 0.00 0.00 0.00 75 1017.6
20260505234935 62 276 2.6 3.5 0.00 0.00 0.00 73 1017.7
20260505233432 61 214 1.7 1.7 0.00 0.00 0.00 73 1017.7
20260505231930 62 217 0.0 0.9 0.00 0.00 0.00 72 1017.7
20260505230429 62 231 0.9 1.7 0.00 0.00 0.00 73 1017.7
20260505224930 61 327 3.5 5.2 0.00 0.00 0.00 73 1017.9
20260505223427 62 300 1.7 1.7 0.00 0.00 0.00 72 1018.0
20260505221927 62 249 1.7 2.6 0.00 0.00 0.00 71 1018.1
20260505220424 61 264 1.7 1.7 0.00 0.00 0.00 73 1018.1
20260505214923 61 210 1.7 1.7 0.00 0.00 0.00 72 1018.0
20260505213421 62 342 1.7 1.7 0.00 0.00 0.00 72 1018.3
20260505211916 62 265 0.9 1.7 0.00 0.00 0.00 72 1018.0
20260505210414 62 228 1.7 2.6 0.00 0.00 0.00 70 1018.2
20260505204911 60 252 0.9 0.9 0.00 0.00 0.00 76 1018.4
20260505203408 59 293 3.5 3.5 0.00 0.00 0.00 79 1018.4
20260505201908 58 267 0.9 0.9 0.00 0.00 0.00 78 1018.5
20260505200406 59 177 0.0 0.0 0.00 0.00 0.00 76 1018.6
20260505194902 59 290 0.9 0.9 0.00 0.00 0.00 75 1018.6
20260505193358 60 262 0.9 2.6 0.00 0.00 0.00 76 1018.6
20260505191856 58 291 0.9 1.7 0.00 0.00 0.00 79 1018.8
20260505190352 57 303 1.7 2.6 0.00 0.00 0.00 83 1018.6
20260505184852 57 282 2.6 3.5 0.00 0.00 0.00 83 1018.8
20260505183349 56 253 0.9 1.7 0.00 0.00 0.00 85 1018.8
20260505181845 56 329 0.9 0.9 0.00 0.00 0.00 84 1018.7
20260505180341 57 198 0.9 0.9 0.00 0.00 0.00 82 1018.7
20260505174837 56 196 0.9 0.9 0.00 0.00 0.00 85 1018.6
20260505173332 55 194 0.9 1.7 0.00 0.00 0.00 87 1018.5
20260505171833 54 186 0.9 0.9 0.00 0.00 0.00 89 1018.5
20260505170329 54 191 0.9 0.9 0.00 0.00 0.00 88 1018.2
20260505164828 53 198 0.0 0.0 0.00 0.00 0.00 91 1018.4
20260505163328 53 303 0.9 0.9 0.00 0.00 0.00 91 1018.2
20260505161825 53 185 0.9 0.9 0.00 0.00 0.00 92 1018.2
20260505160323 52 162 1.7 1.7 0.00 0.00 0.00 93 1018.2
20260505153319 52 197 0.0 0.0 0.00 0.00 0.00 95 1018.1
20260505151819 52 187 0.0 0.9 0.00 0.00 0.00 96 1018.0
20260505150316 52 205 0.9 0.9 0.00 0.00 0.00 96 1018.0
20260505140304 51 192 0.0 0.0 0.00 0.00 0.00 96 1017.5
20260505130251 52 193 0.0 0.0 0.00 0.00 0.00 94 1017.0
20260505124748 52 201 0.0 0.0 0.00 0.00 0.00 92 1017.0
20260505123243 53 197 0.0 0.9 0.00 0.00 0.00 90 1017.1
20260505121739 53 163 0.9 1.7 0.00 0.00 0.00 88 1017.0
20260505120234 53 310 0.9 0.9 0.00 0.00 0.00 88 1017.0
20260505114734 53 237 0.0 0.0 0.00 0.00 0.00 88 1016.9
20260505113229 53 196 0.0 0.0 0.00 0.00 0.00 87 1016.8
20260505111729 53 235 0.9 0.9 0.00 0.00 0.00 87 1016.8
20260505110224 53 229 0.9 0.9 0.00 0.00 0.00 87 1016.7
20260505101716 54 245 0.9 0.9 0.00 0.00 0.00 87 1016.3
20260505100211 54 187 0.0 0.0 0.00 0.00 0.00 86 1016.3
20260505094706 54 322 0.9 1.7 0.00 0.00 0.00 86 1016.4
20260505093202 54 190 0.0 0.9 0.00 0.00 0.00 85 1016.3
20260505091700 54 216 1.7 2.6 0.00 0.00 0.00 86 1016.3
20260505090159 55 211 0.9 0.9 0.00 0.00 0.00 86 1016.2
20260505084657 55 184 0.0 0.0 0.00 0.00 0.00 85 1015.9
20260505083155 55 186 1.7 1.7 0.00 0.00 0.00 85 1015.8
20260505081655 55 224 2.6 2.6 0.00 0.00 0.00 84 1015.6
20260505080152 56 258 1.7 3.5 0.00 0.00 0.00 83 1015.6
20260505074648 56 65 0.0 0.9 0.00 0.00 0.00 83 1015.8
20260505073146 56 140 0.0 0.9 0.00 0.00 0.00 82 1015.4
20260505071646 57 280 0.0 0.9 0.00 0.00 0.00 81 1015.1
20260505070143 57 187 0.0 0.0 0.00 0.00 0.00 80 1015.1
20260505064638 59 215 0.0 0.0 0.00 0.00 0.00 77 1014.9
20260505063135 59 230 0.9 0.9 0.00 0.00 0.00 75 1014.8
20260505061632 61 173 0.9 1.7 0.00 0.00 0.00 74 1014.5
20260505060130 62 164 0.9 0.9 0.00 0.00 0.00 76 1014.5
20260505054625 62 198 0.0 0.0 0.00 0.00 0.00 76 1014.3
20260505053122 62 334 0.9 0.9 0.00 0.00 0.00 75 1014.3
20260505051620 64 269 0.9 1.7 0.00 0.00 0.00 75 1014.4
20260505050120 64 217 0.0 0.0 0.00 0.00 0.00 75 1014.1
20260505041607 64 246 0.9 1.7 0.00 0.00 0.00 76 1013.4
20260505040104 65 175 0.9 0.9 0.00 0.00 0.00 75 1013.3
20260505034559 65 202 0.0 0.9 0.00 0.00 0.00 75 1013.1
20260505033058 66 213 0.0 0.9 0.00 0.00 0.00 73 1012.9
20260505031554 66 199 1.7 1.7 0.00 0.00 0.00 71 1012.8
20260505030049 67 191 0.0 0.9 0.00 0.00 0.00 70 1012.7
20260505024547 68 203 0.0 0.9 0.00 0.00 0.00 67 1012.5
20260505023045 69 181 2.6 3.5 0.00 0.00 0.00 64 1012.5
20260505021541 70 177 0.9 1.7 0.00 0.00 0.00 64 1012.6